CZ-6A DEB

Satellite information

Favourite Embed

Satellite Type and Status

DEBRISIN ORBIT

Key statistics

Satellite CZ-6A DEB at a glance.

Uptime

395

Days in orbit

Revolutions

≈ 14.3

Per day

Orbit

LEO

Low Earth Orbit

Inclination

89.0

Latest

Satellite identification and parameters

Extended collection of information and parameters for CZ-6A DEB.

Object identification

Identified? True

Debris? True

Object name: CZ-6A DEB

International designator: 2024-140VR

Object number (NORAD): 61352

Object ID (CCSDS): 61352

Country: PEOPLES REPUBLIC OF CHINA (PRC)

Current information (Y/N): Y

RCS size: SMALL

Orbital parameters

Period: 100.927 minutes

Inclination: 89.0029 deg

SMA: 7180.668 km

Apoapsis: 820.4 km

Periapsis: 784.665 km

RAAN: 306.5769 deg

Eccentricy: 0.00248827

Argument of periapsis: 10.4999 deg

Mean anomaly: 349.6709 deg

Mean motion: 14.26775081 rev/day

Mean motion (dot): 0.00003654 rev/day2

B* drag term: 0.0014986144 1/REarth

Two-line elements (TLE)

Creation date: Sept. 4, 2025, 10:13 a.m.

Reference frame: TEME

Reference center: EARTH

Epoch: Sept. 4, 2025, 3:06 a.m. UTC

TLE line 0: 0 CZ-6A DEB

TLE line 1: 1 61352U 24140VR 25247.12947538 .00003654 00000-0 14986-2 0 9995

TLE line 2: 2 61352 89.0029 306.5769 0024883 10.4999 349.6709 14.26775081 52185

Live tracking on map

Real-time ground track for satellite CZ-6A DEB.

In-orbit conjunctions

A list of the most updated potential collisions computed for object CZ-6A DEB.

Target Orbit TCA Probability of collision Miss distance Type
COSMOS 923 LEO 2025-08-23 12:01:57 0.0001496605 613.0 (m) PAYLOAD
COSMOS 1066 LEO 2025-06-05 20:54:03 0.0008083211 384.0 (m) PAYLOAD
NOAA 16 DEB SSO 2025-05-11 12:20:08 0.0001195615 127.0 (m) DEBRIS
PEGASUS R/B SSO 2025-04-03 09:02:05 0.0001666255 676.0 (m) ROCKET BODY
DELTA 2 R/B LEO 2025-02-09 21:42:08 0.0001392648 724.0 (m) ROCKET BODY

Associated space launch

18 Low Earth Orbit communication satellites with Ku, Q and V band payloads for the G60 constellation operated by Shanghai Spacecom Satellite Technology (SSST) with funding backed by the Shanghai local government. Initial constellation will consist of 1296 satellites by 2027 with long term plans to expand it to 12000 satellites.

CZ-6A DEB was lifted into orbit during the mission ‘Long March 6A | G60 Polar Group 01’, on board a Long March 6A space rocket.

The launch took place on Aug. 6, 2024, 6:42 a.m. from Launch Complex 9A.

For more information about the launch, click the button.

Launch to space Long March 6A | G60 Polar Group 01
Long March 6A | G60 Polar Group 01

Agency: N/A

Status: Launch Successful

Launch date: Aug. 6, 2024, 6:42 a.m. UTC

Rocket: Long March 6A

Launch pad: Launch Complex 9A

Location: Taiyuan Satellite Launch Center, People's Republic of China

...

Latest news about this satellite

News about space launch
Brightness of first Chinese broadband constellation satellites alarms astronomers

The first satellites of a Chinese broadband constellation are significantly brighter than those of Western systems, posing a new challenge for astronomers.

News about space launch
Chinese rocket stage breaks up into cloud of more than 700 pieces of space debris

HELSINKI — A Chinese Long March 6A rocket’s upper stage has fragmented into a cloud of over 700 pieces of space debris, adding to concerns about long-term orbital safety. China […]

News about space launch
China's Thousand Sails Megaconstellation Kicks Off with Dangerous Debris Field

China's Thousand Sails Megaconstellation Kicks Off with Dangerous Debris Field


Newsletter sign-up

Weekly statistics, charts and insights to help you stay on top of the space industry.